Location: �bnet
(46.9957°N, 8.4908°E)
Time: 23:30:07
(UTC+00:00)

Cosmos 1898 Rocket - Pass Details

Date: 11 May 2021
Orbit: 753 x 784 km, 74.0° (Epoch: 23 June)

Event Time Altitude Azimuth Distance (km) Brightness Sun altitude
Exits shadow 21:07:19 30° 121° (ESE) 1,373 4.3 -18.2°
Maximum altitude 21:08:15 32° 101° (E) 1,319 4.3 -18.2°
Drops below altitude 10° 21:12:56 10° 40° (NE) 2,346 6.2 -18.7°
Sets 21:15:32 0° 30° (NNE) 3,281 7.2 -18.9°
